[[{"header":{"parameterUnit":"m.s-1","parameterCategory":1,"la1":30.2991,"la2":30.254,"lo1":-89.0895,"lo2":-89.0444,"dy":0.0017,"dx":0.0017,"nx":28,"ny":28,"refTime":"2024-06-22T03:00:00:Z","depth":0,"parameterNumber":2,"parameterNumberName":"U-component_of_WINDS"},"data":[0,0,0,0,0,0,0,0,0,0,0,0,0,0,0,0,0,0,0,0,0,0,0,0,0,0,0,0,0,0,0,0,0,0,0,0,0,0,0,0,0,0,0,0,0,0,0,0,0,0,0,0,0,0,0,0,0,0,-1.0039,-1.0039,0,-1.0011,-1.001,-1.001,-0.995,-0.9948,-0.9947,-0.9946,-0.9918,-0.9919,-0.9919,0,0,0,0,0,0,0,0,0,0,0,0,0,-1.0045,-1.0045,-1.0039,-1.0039,-1.0039,-1.0011,-1.001,-1.001,-0.995,-0.9948,-0.9947,-0.9945,-0.9918,-0.9919,-0.9919,0,0,0,0,0,0,0,0,0,0,0,0,0,-1.0032,-1.0045,-1.0039,-1.0005,-1.0002,-1.0011,-1.001,-1.001,-0.995,-0.9948,-0.9946,-0.9945,-0.9918,-0.9919,-0.9919,-0.996,0,0,-0.9921,-0.9921,0,0,0,0,0,0,0,0,-1.0033,-1.0032,-1.0011,-1.0008,-1.0004,-0.9982,-1.0002,-0.9993,-0.9951,-0.997,-0.9946,-0.9944,-0.9941,-0.994,-0.9938,-0.9959,-0.9957,-0.9921,-0.9922,-0.9922,-0.9922,0,0,0,0,0,0,0,-1.0034,-1.0033,-1.0028,-1.001,-1.0006,-0.9992,-0.9988,-1.0,-0.9966,-0.9968,-0.9963,-0.9961,-0.9939,-0.9938,-0.9937,-0.9957,-0.9921,-0.9922,-0.9922,-0.9922,-1.0012,-1.0014,0,0,0,0,0,0,-1.0039,-1.0034,-1.0029,-1.0027,-1.0014,-0.9994,-0.9989,-0.9991,-0.9966,-0.996,-0.9962,-0.9958,-0.9938,-0.9937,-0.9936,-0.9984,-0.9922,-0.9922,-0.9923,-1.001,-1.0013,-1.0015,0,0,0,0,0,0,-1.004,-1.0039,-1.003,-1.0029,-1.0027,-0.9995,-0.9998,-0.9991,-0.999,-0.9962,-0.9956,-0.9968,-0.9936,-0.9935,-0.9955,-0.9982,-0.9923,-0.9923,-1.0008,-1.0011,-1.0014,-1.008,0,0,0,0,0,0,-1.004,-1.004,-1.0054,-1.003,-1.0027,-1.0049,-0.9999,-0.9992,-0.9991,-0.9985,-0.9965,-0.996,-0.9935,-0.9955,-0.9956,-0.9982,-0.9924,-1.0006,-1.0009,-1.0013,-1.0075,-1.0085,-1.0093,0,0,0,0,0,-1.004,-1.0074,-1.0055,-1.0055,-1.0044,-1.005,-1.0049,-1.0019,-0.9994,-1.0008,-0.9991,-0.996,-0.9979,-0.9957,-0.9958,-0.9985,-1.0004,-1.0008,-1.0013,-1.0071,-1.0083,-1.0093,0,0,0,0,0,0,-1.0102,-1.007,-1.0049,-1.0075,-1.0066,-1.004,-1.0058,-1.0032,-1.003,-1.0025,-0.9988,-0.9984,-1.001,-0.9999,-0.9975,-1.0025,-0.9987,-0.9992,-1.0031,-1.0042,-1.005,-1.0053,-0.9924,0,0,0,0,0,-1.0118,-1.0125,-1.0097,-1.0123,-1.0119,-1.009,-1.0091,-1.0069,-1.0058,-1.0054,-1.0037,-1.0029,-1.0033,-1.0036,-1.0038,-1.0073,-1.0069,-1.0092,-1.0101,-1.0109,-1.0114,-1.0134,-1.0145,-1.003,-1.003,-1.003,0,0,-1.0152,-1.0136,-1.0142,-1.0135,-1.0125,-1.0134,-1.0087,-1.0098,-1.0105,-1.0056,-1.0074,-1.0062,-1.005,-1.0078,-1.009,-1.007,-1.0145,-1.0114,-1.0121,-1.0122,-1.014,-1.0151,-1.016,-1.0033,-1.0033,-1.0032,0,0,-1.022,-1.0207,-1.0228,-1.022,-1.0206,-1.0186,-1.0192,-1.017,-1.016,-1.0178,-1.0142,-1.0151,-1.0158,-1.0152,-1.0149,-1.0217,-1.019,-1.0219,-1.0266,-1.0286,-1.0295,-1.0303,-1.033,-1.0339,-1.0224,-1.0224,-1.0224,0,-1.0264,-1.0276,-1.0243,-1.0257,-1.0256,-1.0212,-1.0234,-1.0228,-1.0216,-1.0217,-1.0194,-1.0204,-1.0193,-1.0221,-1.0237,-1.0236,-1.0243,-1.0221,-1.0296,-1.0304,-1.0311,-1.0336,-1.0346,-1.0228,-1.0227,-1.0227,-1.0226,0,-1.0333,-1.0341,-1.036,-1.035,-1.0351,-1.0369,-1.034,-1.0345,-1.0323,-1.0307,-1.0327,-1.0312,-1.0312,-1.0316,-1.0295,-1.0341,-1.033,-1.0303,-1.0264,-1.0326,-1.0349,-1.0358,-1.0233,-1.0232,-1.023,-1.023,0,0,-1.0437,-1.041,-1.0417,-1.0413,-1.0396,-1.0402,-1.042,-1.0419,-1.0425,-1.0418,-1.0434,-1.0442,-1.0417,-1.0415,-1.0393,-1.041,-1.0468,-1.0381,-1.038,-1.0399,-1.0521,-1.0543,-1.0555,-1.045,-1.0451,-1.0452,-1.0523,0,-1.0502,-1.0529,-1.0501,-1.0535,-1.0544,-1.0503,-1.0519,-1.0511,-1.0496,-1.0502,-1.0486,-1.0494,-1.0459,-1.0458,-1.0473,-1.0458,-1.0492,-1.0452,-1.0465,-1.0466,-1.0471,-1.0566,-1.0589,-1.0656,-1.0532,-1.0533,-1.0534,0,-1.0581,-1.0579,-1.0614,-1.0596,-1.0599,-1.0613,-1.0612,-1.0617,-1.0608,-1.0597,-1.0595,-1.0569,-1.0586,-1.0548,-1.0573,-1.0546,-1.055,-1.0544,-1.0545,-1.0547,-1.0505,-1.0572,-1.0676,-1.0687,-1.0547,-1.0546,-1.0545,0,-1.0657,-1.0663,-1.0685,-1.0682,-1.0661,-1.0673,-1.0665,-1.0654,-1.0656,-1.0655,-1.0657,-1.0658,-1.0659,-1.0661,-1.0636,-1.061,-1.0666,-1.0625,-1.0658,-1.0659,-1.0672,-1.0672,-1.0781,-1.0672,-1.0672,-1.0672,-1.0672,0,-1.0733,-1.0757,-1.0719,-1.0733,-1.0758,-1.0726,-1.0753,-1.0741,-1.0732,-1.0744,-1.0709,-1.0721,-1.0687,-1.0696,-1.0677,-1.0702,-1.0702,-1.0695,-1.069,-1.0699,-1.07,-1.0702,-1.0697,-1.0674,-1.0674,-1.0673,-1.0673,0,-1.0823,-1.0798,-1.082,-1.0799,-1.0794,-1.0814,-1.0797,-1.081,-1.0793,-1.0809,-1.0811,-1.0786,-1.0795,-1.0771,-1.0776,-1.0763,-1.08,-1.0786,-1.0803,-1.08,-1.0836,-1.0834,-1.0951,-1.0965,-1.0846,-1.0847,-1.0848,0,-1.0874,-1.0891,-1.0872,-1.0877,-1.0872,-1.088,-1.0883,-1.0852,-1.0857,-1.0849,-1.0863,-1.087,-1.0873,-1.0891,-1.0873,-1.0878,-1.0866,-1.0907,-1.0866,-1.0876,-1.0869,-1.0869,-1.0872,-1.0915,-1.0917,-1.0918,-1.0919,0,-1.0968,-1.0955,-1.0959,-1.0961,-1.0965,-1.0964,-1.0961,-1.0968,-1.0935,-1.0942,-1.0951,-1.0954,-1.0961,-1.0968,-1.097,-1.0963,-1.0937,-1.0932,-1.094,-1.095,-1.096,-1.0958,-1.0828,-1.0929,-1.0928,-1.0928,-1.0927,-1.0927,-1.1041,-1.1055,-1.1045,-1.1052,-1.1046,-1.1045,-1.1057,-1.1042,-1.1049,-1.1051,-1.1033,-1.1047,-1.104,-1.1039,-1.1035,-1.1046,-1.1028,-1.104,-1.1043,-1.1047,-1.1054,-1.0957,-1.1046,-1.1046,-1.1046,-1.1045,-1.1045,0,-1.1135,-1.1126,-1.1133,-1.113,-1.1137,-1.111,-1.1106,-1.1114,-1.1126,-1.1121,-1.1126,-1.1138,-1.1146,-1.113,-1.1135,-1.1148,-1.1136,-1.1151,-1.115,-1.115,-1.1069,-1.1062,-1.116,-1.116,-1.116,-1.116,-1.116,-1.116,-1.1184,-1.1208,-1.1195,-1.1216,-1.1208,-1.1221,-1.1221,-1.1221,-1.1217,-1.1232,-1.1238,-1.1227,-1.1219,-1.1224,-1.1231,-1.1226,-1.1231,-1.125,-1.1242,-1.1166,-1.1155,-1.1144,-1.1138,-1.1251,-1.1251,-1.1322,-1.1323,-1.1323]},{"header":{"parameterUnit":"m.s-1","parameterCategory":1,"la1":30.2991,"la2":30.254,"lo1":-89.0895,"lo2":-89.0444,"dy":0.0017,"dx":0.0017,"nx":28,"ny":28,"refTime":"2024-06-22T03:00:00:Z","depth":0,"parameterNumber":3,"parameterNumberName":"V-component_of_WINDS"},"data":[0,0,0,0,0,0,0,0,0,0,0,0,0,0,0,0,0,0,0,0,0,0,0,0,0,0,0,0,0,0,0,0,0,0,0,0,0,0,0,0,0,0,0,0,0,0,0,0,0,0,0,0,0,0,0,0,0,0,3.4554,3.4554,0,3.4564,3.4564,3.4564,3.458,3.458,3.4581,3.4581,3.459,3.459,3.459,0,0,0,0,0,0,0,0,0,0,0,0,0,3.4549,3.4549,3.4554,3.4554,3.4554,3.4564,3.4564,3.4564,3.458,3.458,3.4581,3.4581,3.459,3.459,3.459,0,0,0,0,0,0,0,0,0,0,0,0,0,3.4554,3.4549,3.4554,3.4563,3.4564,3.4564,3.4564,3.4564,3.458,3.4581,3.4581,3.4581,3.459,3.459,3.459,3.4581,0,0,3.459,3.459,0,0,0,0,0,0,0,0,3.4554,3.4554,3.4562,3.4563,3.4564,3.4571,3.4565,3.457,3.458,3.4574,3.4581,3.4582,3.4584,3.4584,3.4585,3.4581,3.4582,3.459,3.459,3.459,3.459,0,0,0,0,0,0,0,3.4553,3.4554,3.4558,3.4562,3.4563,3.4567,3.4568,3.4566,3.4576,3.4575,3.4576,3.4577,3.4584,3.4585,3.4585,3.4582,3.459,3.459,3.459,3.459,3.4571,3.457,0,0,0,0,0,0,3.4552,3.4553,3.4558,3.4558,3.456,3.4567,3.4568,3.4568,3.4576,3.4578,3.4576,3.4578,3.4585,3.4585,3.4586,3.4575,3.459,3.459,3.459,3.4571,3.4571,3.457,0,0,0,0,0,0,3.4551,3.4552,3.4557,3.4556,3.4557,3.4566,3.4567,3.4568,3.4569,3.4578,3.4579,3.4575,3.4585,3.4586,3.4582,3.4575,3.459,3.459,3.4572,3.4571,3.457,3.4553,0,0,0,0,0,0,3.4551,3.4552,3.4548,3.4556,3.4557,3.4553,3.4566,3.4568,3.4569,3.4571,3.4577,3.4579,3.4586,3.4582,3.4582,3.4576,3.459,3.4572,3.4572,3.4571,3.4554,3.4552,3.455,0,0,0,0,0,3.4551,3.4543,3.4548,3.4548,3.4553,3.4553,3.4554,3.4562,3.4569,3.4565,3.4571,3.4578,3.4576,3.4581,3.4581,3.4575,3.4573,3.4572,3.4571,3.4555,3.4553,3.455,0,0,0,0,0,0,3.4534,3.4544,3.455,3.4544,3.4548,3.4556,3.4552,3.4559,3.456,3.4562,3.4572,3.4573,3.4568,3.4571,3.4577,3.4566,3.4576,3.4575,3.4564,3.4561,3.4559,3.4558,3.459,0,0,0,0,0,3.453,3.4529,3.4538,3.4532,3.4533,3.4542,3.4543,3.4549,3.4553,3.4554,3.4559,3.4563,3.4563,3.4562,3.4563,3.4555,3.4557,3.4551,3.4549,3.4547,3.4546,3.4541,3.4539,3.4567,3.4567,3.4567,0,0,3.452,3.4526,3.4525,3.4529,3.4532,3.4531,3.4543,3.4542,3.4541,3.4554,3.455,3.4554,3.4559,3.4553,3.4551,3.4556,3.4538,3.4546,3.4544,3.4544,3.454,3.4537,3.4535,3.4566,3.4566,3.4566,0,0,3.4503,3.4507,3.4503,3.4506,3.4511,3.4517,3.4516,3.4523,3.4526,3.4523,3.4533,3.4532,3.4532,3.4535,3.4536,3.452,3.4527,3.452,3.4508,3.4504,3.4502,3.45,3.4493,3.4491,3.4519,3.4519,3.4519,0,3.4491,3.449,3.4499,3.4497,3.4498,3.4511,3.4506,3.4508,3.4513,3.4514,3.452,3.452,3.4524,3.4518,3.4514,3.4515,3.4514,3.4519,3.4501,3.4499,3.4498,3.4492,3.4489,3.4518,3.4518,3.4518,3.4518,0,3.4474,3.4473,3.4469,3.4473,3.4474,3.4471,3.448,3.4479,3.4486,3.4491,3.4488,3.4493,3.4494,3.4494,3.45,3.4489,3.4492,3.45,3.4509,3.4494,3.4488,3.4486,3.4516,3.4517,3.4517,3.4517,0,0,3.4445,3.4456,3.4454,3.4456,3.4463,3.4462,3.4459,3.4461,3.4461,3.4464,3.4461,3.4461,3.4468,3.4469,3.4476,3.4472,3.4458,3.448,3.448,3.4475,3.4446,3.444,3.4437,3.4464,3.4463,3.4463,3.4446,0,3.4429,3.4424,3.4433,3.4426,3.4425,3.4437,3.4435,3.4438,3.4443,3.4443,3.4449,3.4448,3.4457,3.4458,3.4455,3.4461,3.4453,3.4462,3.446,3.446,3.4458,3.4435,3.4428,3.4412,3.4444,3.4443,3.4443,0,3.4409,3.4411,3.4404,3.4411,3.4411,3.4408,3.4411,3.4411,3.4415,3.4419,3.4421,3.4429,3.4426,3.4436,3.4432,3.4438,3.4438,3.4441,3.444,3.444,3.445,3.4433,3.4407,3.4404,3.444,3.444,3.4441,0,3.4388,3.4389,3.4385,3.4387,3.4395,3.4393,3.4396,3.4401,3.4402,3.4404,3.4404,3.4406,3.4407,3.4408,3.4416,3.4422,3.4411,3.4421,3.4413,3.4413,3.4409,3.4409,3.4382,3.4411,3.4411,3.4411,3.4411,0,3.4368,3.4363,3.4376,3.4373,3.4368,3.4378,3.4373,3.4377,3.4382,3.438,3.4391,3.4389,3.44,3.4399,3.4405,3.4401,3.4401,3.4404,3.4405,3.4402,3.4402,3.4402,3.4403,3.441,3.441,3.441,3.4411,0,3.4343,3.4351,3.4348,3.4356,3.4358,3.4354,3.4361,3.4359,3.4365,3.4362,3.4362,3.4371,3.4371,3.438,3.4381,3.4385,3.4377,3.4381,3.4376,3.4377,3.4368,3.4368,3.4339,3.4335,3.4367,3.4367,3.4366,0,3.4329,3.4325,3.4334,3.4333,3.4336,3.4336,3.4336,3.4347,3.4347,3.4352,3.4349,3.435,3.435,3.4349,3.4356,3.4357,3.436,3.435,3.436,3.4357,3.4359,3.4359,3.4358,3.4348,3.4347,3.4347,3.4347,0,3.4303,3.4308,3.4309,3.4311,3.4311,3.4313,3.4316,3.4315,3.4327,3.4326,3.4326,3.4327,3.4328,3.4329,3.4331,3.4334,3.4342,3.4344,3.4341,3.4338,3.4334,3.4335,3.4369,3.4344,3.4344,3.4344,3.4344,3.4345,3.4283,3.4281,3.4286,3.4286,3.4289,3.4292,3.429,3.4296,3.4296,3.4298,3.4304,3.4303,3.4308,3.4311,3.4314,3.4313,3.4318,3.4315,3.4314,3.4313,3.4311,3.4335,3.4313,3.4314,3.4314,3.4314,3.4314,0,3.4257,3.4262,3.4262,3.4266,3.4266,3.4274,3.4277,3.4277,3.4276,3.4279,3.428,3.428,3.428,3.4287,3.4288,3.4286,3.4289,3.4286,3.4285,3.4286,3.4307,3.4308,3.4283,3.4283,3.4283,3.4283,3.4283,3.4283,3.4244,3.424,3.4245,3.4242,3.4247,3.4245,3.4247,3.4249,3.4252,3.4251,3.4251,3.4256,3.4261,3.4262,3.4263,3.4265,3.4264,3.4259,3.4262,3.4282,3.4284,3.4287,3.4288,3.4259,3.4259,3.4241,3.4241,3.4241]}]]